Date,TemperatureHighF,TemperatureAvgF,TemperatureLowF,DewpointHighF,DewpointAvgF,DewpointLowF,HumidityHigh,HumidityAvg,HumidityLow,PressureMaxIn,PressureMinIn,WindSpeedMaxMPH,WindSpeedAvgMPH,GustSpeedMaxMPH,PrecipitationSumIn
2014-1-1,11.3,8.4,5.0,-1.0,-3.7,-6.9,57,57,57,29.32,29.17,7,2,9,0.00
2014-1-2,7.9,3.1,-4.7,-4.2,-8.7,-16.1,57,57,57,29.44,29.29,8,2,8,0.00
2014-1-3,30.0,14.1,-6.3,19.0,2.1,-17.6,65,58,54,29.41,28.64,10,2,10,0.00
2014-1-4,34.7,21.7,8.1,27.4,9.9,-4.0,75,60,54,29.17,28.64,10,3,10,0.00
2014-1-5,8.1,1.3,-11.7,-4.2,-10.4,-22.7,57,57,57,29.41,29.17,14,5,14,0.00
2014-1-6,-2.0,-8.4,-13.9,-13.5,-19.5,-24.7,57,57,57,29.41,29.29,16,3,16,0.00
2014-1-7,16.3,5.6,-7.6,1.4,-7.6,-18.8,57,54,49,29.29,29.09,5,0,5,0.00
2014-1-8,16.2,10.6,7.0,0.1,-4.6,-7.3,51,49,48,29.44,29.23,4,1,4,0.00
2014-1-9,22.3,14.4,4.3,16.5,2.0,-11.1,80,58,48,29.41,29.00,6,1,6,0.00
2014-1-10,34.0,30.0,21.7,32.4,28.0,16.5,98,92,80,29.00,28.55,5,0,5,0.00
2014-1-11,32.7,28.3,22.1,32.0,24.3,19.1,98,85,66,28.85,28.55,11,2,11,0.00
2014-1-12,46.6,36.7,22.8,30.2,27.2,20.3,94,70,50,28.79,28.50,6,1,6,0.00
2014-1-13,40.1,35.0,30.2,31.8,24.4,18.1,79,65,47,28.82,28.61,8,2,8,0.00
2014-1-14,39.4,28.2,16.3,33.0,15.3,2.5,86,59,44,29.14,28.61,19,5,19,0.00
2014-1-15,29.5,20.4,13.8,14.9,5.3,1.0,59,52,43,29.17,28.70,13,2,13,0.00
2014-1-16,37.9,32.6,8.6,28.4,18.7,-2.8,89,57,43,28.97,28.61,17,3,17,0.00
2014-1-17,20.3,11.5,4.8,5.7,-0.5,-6.3,59,58,51,29.09,28.88,12,3,12,0.00
2014-1-18,36.9,24.5,12.4,32.9,15.7,0.8,90,69,53,29.03,28.55,13,3,13,0.00
2014-1-19,49.5,27.0,15.1,27.8,17.7,9.2,90,69,40,29.00,28.61,8,1,8,0.00
2014-1-20,42.8,33.2,6.6,30.1,24.1,-0.5,86,70,49,29.32,28.79,13,2,13,0.00
2014-1-21,13.8,5.2,-4.7,6.3,-1.9,-11.4,72,72,72,29.44,29.06,10,2,10,0.00
2014-1-22,20.3,15.6,-3.3,8.7,1.9,-19.3,72,54,45,29.47,29.00,15,4,15,0.00
2014-1-23,7.7,-0.4,-6.7,-9.2,-16.7,-22.5,45,45,45,29.74,29.44,10,3,10,0.00
2014-1-24,41.5,24.7,1.0,32.3,7.4,-15.3,73,47,41,29.44,28.61,12,2,12,0.00
2014-1-25,39.4,24.9,16.7,31.4,7.3,-4.2,82,48,34,29.03,28.55,14,4,14,0.00
2014-1-26,46.0,31.1,2.8,28.4,14.7,-13.2,62,50,41,29.20,28.44,17,5,17,0.00
2014-1-27,6.3,1.3,-2.6,-10.2,-14.7,-18.2,46,46,46,29.44,29.20,11,4,11,0.00
2014-1-28,16.2,5.3,-3.5,-3.1,-12.6,-19.0,46,43,37,29.44,29.23,10,1,10,0.00
2014-1-29,37.4,19.7,1.8,13.4,-1.2,-18.0,52,39,35,29.23,28.70,9,1,9,0.00
2014-1-30,42.8,27.6,10.2,23.0,9.4,-3.9,55,46,39,29.09,28.50,17,4,17,0.00
2014-1-31,10.9,9.4,8.1,-3.2,-4.7,-5.9,52,52,52,29.14,29.09,8,2,8,0.00
2014-2-1,26.1,17.8,9.1,15.9,8.0,-0.2,70,65,62,29.26,29.00,10,3,10,0.00
2014-2-2,18.7,8.6,-0.6,4.1,-3.5,-9.5,65,58,48,29.35,29.26,8,1,8,0.00
2014-2-3,29.3,16.2,3.2,11.1,0.8,-11.2,60,50,45,29.29,29.23,5,0,5,0.00
2014-2-4,22.6,18.2,6.3,14.9,10.9,1.1,79,73,56,29.32,29.20,10,1,10,0.00
2014-2-5,8.8,4.0,-3.8,3.4,-1.1,-8.7,79,79,79,29.56,29.29,11,4,11,0.00
2014-2-6,10.4,0.2,-8.3,5.2,-4.8,-13.1,79,79,79,29.56,29.38,8,2,8,0.00
2014-2-7,19.8,6.1,-6.9,8.5,-4.9,-11.7,79,62,44,29.38,29.20,4,0,4,0.00
2014-2-8,26.4,17.0,10.8,13.3,3.9,-5.9,71,56,46,29.20,29.03,5,1,5,0.00
2014-2-9,15.4,6.1,-1.8,6.3,-2.5,-10.3,67,67,66,29.41,29.14,8,2,8,0.00
2014-2-10,7.9,-2.0,-11.0,-1.0,-10.3,-18.9,67,67,67,29.50,29.38,9,1,9,0.00
2014-2-11,19.2,5.7,-8.1,4.9,-6.2,-16.1,67,58,44,29.47,29.17,6,1,6,0.00
2014-2-12,28.8,19.1,10.9,13.8,6.1,-4.9,71,56,48,29.17,28.88,5,1,5,0.00
2014-2-13,43.7,28.8,18.0,27.1,16.9,5.3,80,62,45,28.91,28.64,10,2,10,0.00
2014-2-14,19.2,14.5,6.6,8.4,2.5,-5.7,73,58,52,29.12,28.73,11,3,11,0.00
2014-2-15,34.7,17.5,5.5,29.4,6.3,-6.8,85,61,52,29.09,28.82,13,1,13,0.00
2014-2-16,30.9,24.6,20.7,19.8,14.5,11.5,79,66,49,29.20,28.97,8,2,8,0.00
2014-2-17,44.4,31.8,23.7,31.8,22.5,15.6,86,70,44,28.97,28.79,15,2,15,0.00
2014-2-18,51.4,39.9,27.5,30.6,26.0,20.3,76,59,41,28.91,28.61,10,1,10,0.00
2014-2-19,48.9,38.3,26.6,32.6,27.4,23.2,88,67,42,28.94,28.70,8,1,8,0.00
2014-2-20,37.9,33.9,25.3,35.6,31.7,17.1,98,92,71,28.70,28.32,15,3,15,0.00
2014-2-21,39.2,28.0,20.3,21.2,14.9,7.5,81,58,42,28.88,28.61,10,2,10,0.00
2014-2-22,31.8,25.9,20.8,21.3,12.4,4.3,86,58,42,29.17,28.88,6,1,6,0.00
2014-2-23,25.9,19.6,15.4,8.2,5.2,2.2,67,53,42,29.32,29.17,7,2,7,0.00
2014-2-24,28.2,19.8,12.9,10.7,7.8,3.6,75,60,43,29.35,29.26,5,1,5,0.00
2014-2-25,12.9,8.2,1.2,5.9,1.3,-5.4,73,73,73,29.41,29.32,10,2,10,0.00
2014-2-26,26.2,11.5,-3.8,10.0,0.2,-10.3,73,62,46,29.41,28.82,11,2,11,0.00
2014-2-27,17.8,5.1,-2.6,3.4,-6.5,-13.9,58,58,53,29.20,28.94,7,2,7,0.00
2014-2-28,41.5,20.9,3.2,19.0,7.1,-8.2,75,56,40,29.09,28.82,10,2,10,0.00
2014-3-1,20.5,9.4,-0.9,12.9,-2.3,-12.5,72,58,57,29.47,29.09,10,3,10,0.00
2014-3-2,2.7,-2.5,-7.6,-9.1,-13.9,-18.8,57,57,57,29.56,29.44,1,1,1,0.00
2014-3-3,22.1,7.6,-8.0,2.4,-7.3,-19.3,57,50,40,29.53,29.23,7,1,7,0.00
2014-3-4,34.5,22.2,10.0,13.6,4.3,-6.6,54,46,41,29.23,29.06,6,1,6,0.00
2014-3-5,28.6,24.0,21.2,15.0,12.0,8.4,71,60,54,29.32,29.14,7,2,7,0.00
2014-3-6,38.8,28.8,20.3,25.9,19.3,13.6,80,68,53,29.32,28.91,6,2,6,0.00
2014-3-7,45.0,36.6,31.3,33.0,28.2,23.0,78,71,58,29.00,28.82,8,2,8,0.00
2014-3-8,35.1,28.5,21.2,20.1,17.4,15.2,78,63,53,29.32,29.26,7,2,7,0.00
2014-3-9,54.5,38.1,20.1,33.0,25.1,15.1,86,62,43,29.26,28.82,8,1,8,0.00
2014-3-10,62.2,48.3,37.9,38.7,32.7,27.2,77,56,39,28.82,28.70,5,0,5,0.00
2014-3-11,44.8,40.9,36.1,36.1,31.2,23.6,79,69,52,28.97,28.58,13,3,13,0.00
2014-3-12,36.1,32.5,27.9,23.6,18.2,14.1,67,56,42,29.14,28.97,11,3,11,0.00
2014-3-13,61.0,43.1,27.0,33.3,25.9,18.3,77,53,34,29.12,28.73,8,1,8,0.00
2014-3-14,53.1,45.4,34.7,30.2,25.3,20.2,64,46,37,28.97,28.64,15,3,15,0.00
2014-3-15,34.5,30.9,28.8,24.9,22.1,20.8,75,70,58,29.00,28.97,3,0,3,0.00
2014-3-16,32.9,28.1,22.1,14.4,10.3,7.8,55,47,42,29.29,29.09,7,1,7,0.00
2014-3-17,46.8,33.3,20.5,22.0,15.9,8.4,65,50,37,29.12,28.58,10,2,10,0.00
2014-3-18,50.7,41.3,34.9,38.5,26.0,17.4,92,55,45,28.64,28.55,6,1,6,0.00
2014-3-19,43.0,35.7,30.0,38.5,26.1,21.3,92,69,49,29.06,28.64,12,4,12,0.00
2014-3-20,55.0,41.4,27.5,33.0,25.2,21.0,81,55,36,29.06,28.88,6,1,6,0.00
2014-3-21,57.6,42.7,31.1,33.9,26.6,19.4,73,54,35,29.15,28.79,13,3,13,0.00
2014-3-22,33.3,26.8,21.2,21.4,10.0,6.3,69,49,40,29.47,29.14,10,4,10,0.00
2014-3-23,33.1,25.7,16.5,10.2,6.9,2.8,56,45,38,29.50,29.32,8,2,8,0.00
2014-3-24,40.8,31.3,24.6,25.6,18.0,7.4,78,58,40,29.35,29.14,6,1,6,0.00
2014-3-25,33.1,26.6,21.9,15.2,8.1,2.6,66,46,34,29.32,29.17,10,3,10,0.00
2014-3-26,54.3,33.4,20.1,35.1,11.0,2.7,70,40,27,29.20,28.73,13,2,13,0.00
2014-3-27,52.9,43.7,34.9,52.2,41.9,32.8,98,94,70,28.73,28.29,11,3,11,0.00
2014-3-28,38.8,34.9,32.7,32.8,29.3,27.5,92,80,65,29.12,28.73,10,2,10,0.00
2014-3-29,52.2,40.3,27.7,28.4,25.0,21.4,88,57,37,29.26,29.14,6,1,6,0.00
2014-3-30,68.5,44.0,37.0,35.6,27.5,23.4,68,54,27,29.15,28.79,9,2,9,0.00
2014-3-31,74.5,54.9,29.7,44.8,32.4,11.4,76,44,30,28.82,28.44,13,3,13,0.00
2014-4-1,46.0,35.0,22.3,22.2,15.4,8.2,56,45,38,29.09,28.82,13,3,13,0.00
2014-4-2,49.5,41.8,32.7,34.1,25.5,16.9,73,53,41,29.09,28.85,8,2,8,0.00
2014-4-3,45.9,40.9,37.6,43.5,37.5,33.6,98,88,65,28.85,28.58,7,2,7,0.00
2014-4-4,42.3,35.9,30.2,36.9,27.7,23.5,98,74,48,29.14,28.58,16,4,16,0.00
2014-4-5,57.9,41.8,25.0,31.8,24.9,20.8,87,55,31,29.20,29.03,7,1,7,0.00
2014-4-6,59.0,49.4,40.6,41.8,32.6,21.0,75,53,38,29.06,28.88,4,0,4,0.00
2014-4-7,64.4,51.1,38.8,40.4,36.0,31.3,76,58,35,28.88,28.73,7,1,7,0.00
2014-4-8,57.2,47.3,37.9,35.9,28.5,20.7,81,51,27,29.06,28.85,13,3,13,0.00
2014-4-9,75.0,53.4,31.1,33.6,27.2,20.9,69,41,21,29.06,28.70,7,1,7,0.00
2014-4-10,66.9,58.4,48.4,35.6,27.2,17.0,49,32,17,29.00,28.61,11,2,11,0.00
2014-4-11,76.3,58.0,37.2,33.1,25.7,20.2,51,31,15,29.03,28.88,8,1,8,0.00
2014-4-12,85.5,69.7,57.7,55.7,43.7,27.8,87,41,29,28.91,28.55,9,2,9,0.00
2014-4-13,59.5,48.2,33.8,56.7,47.1,32.7,98,96,86,28.76,28.55,17,4,17,0.00
2014-4-14,39.9,33.8,29.3,33.1,22.0,12.8,98,64,40,29.14,28.76,15,4,15,0.00
2014-4-15,47.5,35.8,24.8,22.8,17.6,13.1,71,49,35,29.20,28.97,9,2,9,0.00
2014-4-16,65.5,51.4,37.6,37.7,28.0,19.7,78,43,27,28.97,28.76,13,3,13,0.00
2014-4-17,55.6,42.4,34.0,34.7,27.3,23.4,77,57,37,29.29,28.97,10,3,10,0.00
2014-4-18,65.5,50.0,33.3,34.4,29.6,25.0,76,48,27,29.32,29.14,8,2,8,0.00
2014-4-19,77.2,63.1,47.7,43.1,35.9,28.4,48,37,26,29.17,29.03,8,2,8,0.00
2014-4-20,85.3,70.5,57.4,50.6,45.1,38.8,55,41,30,29.06,28.94,8,1,8,0.00
2014-4-21,73.2,65.2,53.8,59.0,46.3,28.6,80,54,23,29.06,28.94,10,2,10,0.00
2014-4-22,67.5,56.0,41.2,33.5,29.0,24.8,55,36,26,29.14,29.00,10,2,10,0.00
2014-4-23,55.9,49.6,44.8,41.3,33.6,26.6,87,56,35,29.06,28.76,11,2,11,0.00
2014-4-24,55.2,50.8,45.1,54.4,45.0,36.0,97,81,58,28.82,28.61,9,2,9,0.00
2014-4-25,79.0,59.8,39.6,50.3,38.8,32.6,98,55,22,28.85,28.76,6,1,6,0.00
2014-4-26,74.3,61.4,53.6,43.8,37.2,33.4,47,41,33,28.85,28.67,10,2,10,0.00
2014-4-27,63.9,54.7,44.2,58.9,45.9,31.1,98,74,45,28.73,28.41,10,3,10,0.00
2014-4-28,66.6,57.7,51.4,59.7,54.5,45.7,98,89,73,28.47,28.29,8,2,8,0.00
2014-4-29,51.6,46.1,37.6,49.1,44.2,36.0,98,93,83,28.76,28.41,8,2,8,0.00
2014-4-30,43.5,40.3,37.4,41.8,38.2,32.3,98,92,80,28.85,28.76,10,3,10,0.00
2014-5-1,48.0,44.5,41.0,40.8,38.3,36.2,96,79,66,28.94,28.79,12,4,12,0.00
2014-5-2,68.5,55.6,40.8,42.0,37.3,34.1,86,54,32,28.91,28.70,7,2,7,0.00
2014-5-3,71.2,57.2,42.3,44.0,37.9,32.6,80,52,26,28.94,28.79,9,2,9,0.00
2014-5-4,65.8,56.2,47.1,40.8,36.6,32.6,76,50,35,29.06,28.85,8,2,8,0.00
2014-5-5,72.0,59.7,47.5,40.0,33.5,24.4,49,38,30,28.88,28.82,7,2,7,0.00
2014-5-6,76.1,62.9,48.6,47.6,38.3,30.4,52,41,32,28.85,28.61,8,2,8,0.00
2014-5-7,89.8,74.3,57.2,61.4,52.1,38.3,66,47,32,28.67,28.58,8,1,8,0.00
2014-5-8,80.1,72.3,59.2,63.7,59.1,47.4,91,65,44,28.73,28.61,9,1,9,0.00
2014-5-9,67.6,57.4,50.2,47.9,39.7,32.4,72,53,33,28.85,28.73,9,2,9,0.00
2014-5-10,79.9,62.1,50.2,55.9,43.2,36.0,79,54,24,28.88,28.73,8,1,8,0.00
2014-5-11,75.9,64.7,55.4,66.2,59.4,51.8,98,84,62,28.88,28.67,8,1,8,0.00
2014-5-12,69.1,61.8,61.3,67.9,61.3,60.8,98,98,96,28.82,28.73,3,0,3,0.00
2014-5-16,57.0,50.9,40.8,30.4,28.2,25.4,62,42,36,29.12,29.06,5,1,5,0.00
2014-5-17,65.3,52.5,37.4,40.4,30.8,27.2,80,48,26,29.14,29.09,6,0,6,0.00
2014-5-18,70.2,59.1,42.3,41.2,35.0,29.4,70,43,27,29.17,29.00,6,1,6,0.00
2014-5-19,73.9,66.1,56.3,57.4,49.7,37.5,67,56,43,29.03,28.70,8,1,8,0.00
2014-5-20,83.7,72.7,61.3,64.0,59.5,55.0,89,65,44,28.85,28.76,6,0,6,0.00
2014-5-21,80.6,70.5,61.2,64.1,52.7,39.6,98,59,30,29.09,28.85,7,1,7,0.00
2014-5-22,72.0,63.0,56.8,51.6,45.1,40.2,77,54,35,29.26,29.06,4,0,4,0.00
2014-5-23,78.4,66.8,53.2,49.4,43.6,37.0,83,47,24,29.20,29.09,4,0,4,0.00
2014-5-24,78.6,68.5,59.4,51.8,45.9,41.2,62,45,30,29.14,29.03,5,1,5,0.00
2014-5-25,77.9,67.7,62.1,67.5,60.4,51.0,95,78,61,29.06,28.94,4,0,4,0.00
2014-5-28,79.5,75.4,70.7,66.1,61.9,58.7,76,63,54,29.03,28.94,5,0,5,0.00
2014-5-29,83.1,74.3,64.4,63.9,60.4,56.5,77,63,45,29.06,28.97,5,0,5,0.00
2014-5-30,85.6,76.7,68.4,68.2,63.7,59.5,87,66,43,29.09,29.00,4,0,4,0.00
2014-5-31,73.0,70.6,69.6,66.4,64.9,64.0,88,82,74,29.09,29.06,2,0,2,0.00
2014-6-7,68.2,63.9,60.1,67.6,63.1,58.8,98,97,93,29.00,28.88,4,0,4,0.00
2014-6-8,71.2,64.0,57.2,59.3,57.3,55.1,96,80,61,29.09,28.97,4,0,4,0.00
2014-6-9,74.8,66.6,57.7,62.6,56.7,50.1,96,73,50,29.00,28.85,2,0,2,0.00
2014-6-10,74.3,69.1,60.3,58.2,51.7,47.4,77,55,45,28.91,28.82,3,0,3,0.00
2014-6-11,79.2,68.5,56.5,60.0,54.1,51.6,89,63,40,28.85,28.76,4,0,4,0.00
2014-6-12,73.4,68.2,62.4,59.5,48.4,35.8,78,51,35,29.00,28.79,5,1,5,0.00
2014-6-13,76.5,64.9,49.8,46.1,40.7,34.4,71,43,29,29.09,28.94,4,0,4,0.00
2014-6-14,80.2,70.4,58.5,56.2,50.0,42.9,64,49,41,28.97,28.73,7,1,7,0.00
2014-6-15,81.0,73.2,66.6,63.8,57.2,50.9,85,59,40,28.94,28.55,8,1,8,0.00
2014-6-16,86.0,74.8,62.8,72.4,64.3,55.3,90,71,50,29.00,28.70,6,1,6,0.00
2014-6-17,84.4,73.3,61.7,73.1,65.7,58.2,98,78,64,28.91,28.76,5,1,5,0.00
2014-6-18,86.0,78.9,69.4,75.2,71.5,65.4,91,79,66,28.88,28.76,6,0,6,0.00
2014-6-19,79.7,73.8,65.3,74.1,69.2,64.1,98,86,73,28.97,28.82,6,0,6,0.00
2014-6-20,86.4,74.5,62.8,74.3,62.9,51.2,98,72,31,29.00,28.88,0,0,0,0.00
2014-6-21,81.7,74.4,65.8,70.1,64.5,60.7,96,73,53,28.97,28.85,0,0,0,0.00
2014-6-22,79.2,71.7,67.6,69.8,66.3,64.0,93,83,69,28.88,28.79,0,0,0,0.00
2014-6-23,80.1,72.4,65.1,70.8,65.5,60.5,98,80,56,28.94,28.82,0,0,0,0.00
2014-6-24,82.2,73.0,63.3,63.5,58.9,53.5,90,64,39,28.97,28.91,0,0,0,0.00
2014-6-25,84.9,74.3,63.0,65.4,58.6,52.5,87,61,35,29.03,28.94,0,0,0,0.00
2014-6-26,75.7,69.6,67.3,71.4,66.1,58.9,98,89,67,29.03,28.85,3,0,3,0.34
2014-6-27,79.7,72.4,66.4,76.0,69.6,65.8,98,91,76,28.91,28.76,4,0,4,3.12
2014-6-28,85.3,74.3,64.4,72.2,69.0,63.2,98,84,62,28.88,28.76,6,1,6,0.33
2014-6-29,80.2,71.3,62.6,75.7,69.6,62.0,98,94,81,28.91,28.76,4,0,4,0.00
2014-6-30,82.2,72.0,64.2,78.5,70.4,63.0,98,95,77,28.85,28.61,5,0,5,0.00
2014-7-1,77.0,68.0,60.8,64.9,58.3,51.4,98,74,49,28.94,28.73,3,1,3,0.00
2014-7-2,65.5,60.8,56.5,54.5,52.2,49.5,89,73,63,29.09,28.94,1,1,1,0.00
2014-7-3,74.8,64.7,52.3,59.6,51.0,46.6,95,65,40,29.20,29.09,1,1,1,0.00
2014-7-4,79.0,68.9,56.8,61.4,54.4,50.2,88,62,42,29.29,29.17,1,1,1,0.00
2014-7-5,73.4,67.1,62.6,70.1,62.6,55.3,98,86,63,29.17,28.94,1,1,1,0.00
2014-7-6,86.4,77.2,67.6,76.7,71.5,64.6,98,83,66,28.94,28.76,0,0,0,0.00
2014-7-7,87.1,76.8,67.1,71.4,65.8,59.1,91,70,48,28.85,28.70,0,0,0,0.00
2014-7-8,79.2,72.7,65.3,62.2,56.8,52.0,82,59,41,28.94,28.76,0,0,0,0.00
2014-7-9,79.0,71.2,59.7,58.9,54.6,51.0,82,57,40,29.06,28.94,0,0,0,0.00
2014-7-10,81.5,72.4,61.7,62.0,55.9,50.6,84,59,35,29.09,29.03,6,0,6,0.00
2014-7-11,75.7,70.4,66.0,72.4,64.3,55.3,95,82,61,29.12,28.94,6,0,6,0.00
2014-7-12,86.0,75.6,69.3,76.7,70.9,65.4,97,86,67,29.06,28.91,4,0,4,0.00
2014-7-13,84.4,72.9,66.0,72.5,64.1,58.5,97,76,49,29.03,28.94,4,0,4,0.04
2014-7-14,75.4,68.8,59.5,65.9,53.0,40.0,93,61,35,29.06,28.91,5,1,5,0.00
2014-7-15,71.8,63.0,54.5,54.2,47.4,43.7,81,58,41,29.12,29.03,4,0,4,0.00
2014-7-16,74.7,66.5,57.9,58.2,49.2,44.8,81,56,37,29.09,29.03,3,0,3,0.00
2014-7-17,77.5,67.2,56.1,60.7,52.6,48.8,90,62,38,29.09,29.03,4,0,4,0.00
2014-7-18,79.0,69.7,59.9,59.7,55.1,52.3,81,62,41,29.09,29.00,4,0,4,0.00
2014-7-19,80.2,72.1,63.0,60.6,58.2,55.6,83,63,45,29.06,28.94,5,0,5,0.04
2014-7-20,83.1,79.5,72.9,63.1,61.8,59.5,71,55,47,28.94,28.88,6,1,6,0.00
2014-7-21,89.6,75.4,69.6,74.4,66.5,62.7,82,74,59,28.94,28.88,6,0,6,0.00
2014-7-22,89.1,81.3,75.0,77.4,73.2,61.6,90,77,54,29.12,28.88,5,0,5,0.00
2014-7-23,80.4,73.9,65.8,61.8,56.3,50.5,72,55,40,29.20,29.12,4,0,4,0.00
2014-7-24,78.4,69.7,61.2,63.9,58.2,53.6,87,68,43,29.17,28.88,4,0,4,0.08
2014-7-25,78.3,70.7,63.3,69.7,62.5,57.0,89,76,65,28.97,28.76,6,1,6,0.05
2014-7-26,85.5,75.7,69.1,71.1,68.8,66.7,94,80,58,28.88,28.76,4,0,4,0.00
2014-7-27,77.5,71.9,65.8,69.1,58.2,50.8,93,65,42,29.09,28.88,6,1,6,0.04
2014-7-28,74.7,67.3,59.9,61.9,54.6,50.2,89,65,44,29.20,29.09,3,0,3,0.00
2014-7-29,77.7,67.5,57.0,59.0,53.1,47.6,90,63,35,29.17,29.06,3,0,3,0.00
2014-7-30,79.2,68.5,57.4,57.9,52.8,48.6,85,60,37,29.12,29.06,3,0,3,0.00
2014-7-31,80.2,68.6,58.1,61.0,56.3,51.8,89,67,40,29.09,29.03,3,0,3,0.00
2014-8-1,81.3,70.6,61.3,64.6,58.4,55.2,92,68,43,29.12,29.06,3,0,3,0.00
2014-8-2,83.7,72.9,61.3,64.6,58.8,54.0,90,64,38,29.17,29.09,3,0,3,0.08
2014-8-3,84.9,73.4,67.5,64.1,60.5,57.0,80,65,40,29.15,29.03,4,0,4,0.00
2014-8-4,85.3,75.7,66.2,67.9,63.8,60.8,89,68,48,29.06,28.97,3,0,4,0.00
2014-8-5,78.8,72.7,66.7,67.4,64.8,60.9,89,77,64,29.09,29.00,2,0,2,0.08
2014-8-6,72.3,68.2,66.0,67.8,65.8,64.6,96,92,79,29.09,28.97,3,0,3,1.08
2014-8-7,69.1,67.9,66.6,67.3,66.1,65.1,95,94,93,29.00,28.94,3,0,3,0.00
2014-8-8,76.1,71.1,65.1,67.3,64.6,62.7,94,81,68,29.03,28.97,3,0,3,0.00
2014-8-9,75.9,70.9,66.6,64.7,63.2,61.9,89,77,64,29.06,29.00,3,0,3,0.00
2014-8-10,76.6,70.7,65.7,67.7,64.9,62.3,90,82,69,29.06,29.00,2,0,2,0.58
2014-8-11,76.3,70.7,64.9,65.2,59.3,51.8,91,69,44,29.03,28.97,5,1,5,0.58
2014-8-12,75.2,66.3,57.6,59.9,52.1,46.9,79,62,41,29.09,29.03,4,0,4,0.00
2014-8-13,78.3,66.5,56.8,59.2,54.1,51.7,86,67,42,29.15,29.06,2,0,2,0.00
2014-8-14,81.9,71.0,60.4,63.7,59.0,56.2,88,68,44,29.12,28.97,3,0,3,0.00
2014-8-15,72.3,69.8,67.5,67.1,63.6,61.8,91,81,70,29.00,28.88,5,0,5,0.29
2014-8-16,68.9,68.9,68.9,66.2,66.2,66.2,91,91,91,28.91,28.82,3,0,3,0.04
2014-8-19,82.4,76.5,70.0,63.2,61.6,59.2,79,61,46,28.82,28.79,3,0,3,0.04
2014-8-20,79.3,68.6,0.0,73.7,63.6,0.0,89,80,64,31.98,28.82,3,0,3,1.29
2014-8-21,84.0,79.0,74.1,76.0,73.4,70.3,89,83,71,28.88,28.79,4,0,4,0.17
2014-8-22,84.2,78.3,72.0,78.1,73.4,68.2,88,85,76,28.94,28.82,4,0,4,0.04
2014-8-23,85.5,77.3,71.8,76.9,71.5,67.0,87,83,70,28.97,28.85,5,0,5,0.83
2014-8-24,89.6,79.8,74.5,74.8,71.8,69.6,87,78,53,28.88,28.82,4,0,4,0.00
2014-8-25,86.0,79.8,74.7,77.6,71.5,63.2,88,76,62,29.03,28.88,4,0,4,0.00
2014-8-26,77.5,72.5,67.3,66.2,63.6,61.2,88,74,60,29.17,29.03,4,0,4,0.00
2014-8-27,76.1,72.2,68.5,67.7,64.9,61.8,85,78,72,29.17,29.06,3,0,3,0.00
2014-8-28,78.3,72.3,68.0,73.7,67.8,64.0,88,86,83,29.09,28.88,4,0,4,0.00
2014-8-29,81.7,72.6,67.6,75.7,67.4,63.0,88,84,74,28.88,28.76,3,0,3,0.00
2014-8-30,79.5,71.8,66.6,71.4,65.5,61.9,89,81,67,28.91,28.79,3,0,3,0.00
2014-8-31,85.1,74.8,66.4,73.6,67.8,62.7,89,79,60,28.88,28.64,6,0,6,0.00
2014-9-1,77.5,71.3,66.2,70.6,63.2,57.5,86,77,53,28.88,28.64,4,0,4,0.00
2014-9-2,76.6,66.8,61.5,62.4,59.0,52.9,88,78,46,28.97,28.88,2,0,2,0.00
2014-9-3,82.4,72.8,62.6,71.0,65.1,58.7,88,77,62,28.97,28.79,6,0,6,0.00
2014-9-4,88.9,81.3,74.8,72.8,70.8,68.4,85,71,54,28.91,28.76,5,0,5,0.00
2014-9-5,77.9,67.7,58.1,70.3,61.1,52.8,87,80,69,29.20,28.91,4,0,4,0.00
2014-9-6,70.7,61.4,51.8,56.2,51.0,46.9,88,71,44,29.26,29.17,2,0,3,0.00
2014-9-7,72.5,63.3,54.1,59.8,51.3,45.5,88,68,39,29.20,29.06,5,0,5,0.00
2014-9-8,72.1,64.1,55.4,64.9,57.7,50.3,87,80,62,29.09,28.82,6,0,6,0.00
2014-9-9,75.9,70.5,66.6,70.6,65.5,61.8,86,84,81,28.91,28.67,4,0,4,8.47
2014-9-10,68.5,64.0,54.5,63.7,58.5,48.1,86,82,77,29.03,28.55,5,0,5,0.00
2014-9-11,56.3,53.5,50.7,49.0,46.4,45.0,82,77,68,29.26,29.03,4,1,4,0.00
2014-9-12,52.2,48.9,44.1,46.3,44.0,40.5,87,83,75,29.38,29.32,2,0,2,0.00
2014-9-13,59.2,49.3,40.3,49.2,39.7,36.5,89,72,45,29.35,29.20,0,0,0,0.00
2014-9-14,66.6,57.9,47.3,52.3,47.5,41.6,83,69,49,29.23,29.09,3,0,3,0.00
2014-9-15,61.9,58.4,48.9,57.2,50.2,43.8,86,75,57,29.23,29.03,1,0,1,0.00
2014-9-16,64.4,54.5,43.7,53.2,45.0,40.1,88,72,49,29.23,29.03,1,0,1,0.00
2014-9-17,72.0,62.4,53.4,58.8,53.5,48.4,84,73,53,29.03,28.91,2,0,2,0.00
2014-9-18,69.8,60.6,56.8,59.7,54.2,48.5,86,80,47,29.09,28.97,4,0,4,0.00
2014-9-19,77.0,67.4,57.9,64.2,59.3,52.8,83,76,63,29.03,28.82,5,1,5,0.00
2014-9-20,80.6,72.0,64.4,68.5,61.0,46.3,84,70,43,29.00,28.82,4,0,4,0.00
2014-9-21,68.5,61.5,55.6,51.1,46.4,43.3,80,59,42,29.20,28.97,4,1,4,0.00
2014-9-22,56.5,52.1,49.5,46.2,45.5,44.7,84,78,68,29.26,29.20,0,0,0,0.00
2014-9-23,69.8,62.0,53.1,54.4,50.8,48.5,85,68,49,29.23,29.12,4,0,4,0.00
2014-9-24,65.1,60.7,57.7,59.5,53.6,49.7,86,78,65,29.20,29.11,4,0,4,0.00
2014-9-25,74.7,66.4,59.4,61.2,57.3,53.5,83,73,58,29.20,29.12,3,0,3,0.00
2014-9-26,78.1,68.6,60.1,61.8,56.7,51.7,83,67,41,29.14,29.09,4,0,4,0.00
2014-9-27,77.4,68.2,62.2,66.9,60.7,56.6,85,77,58,29.17,29.06,3,0,3,0.00
2014-9-28,77.2,67.5,60.1,65.4,58.7,55.2,85,75,49,29.14,29.06,2,0,2,0.00
2014-9-29,77.5,67.4,59.0,65.8,59.5,54.5,85,76,57,29.06,28.94,3,0,3,0.00
2014-9-30,67.1,62.4,59.0,58.9,56.1,53.5,85,80,72,29.00,28.82,4,0,4,0.00
2014-10-1,70.2,66.8,62.1,64.8,61.9,57.5,85,84,83,28.82,28.73,2,0,2,0.00
2014-10-2,67.8,64.6,55.9,63.5,60.0,51.6,87,85,84,28.79,28.67,2,0,2,0.00
2014-10-3,55.8,48.2,40.3,51.6,34.1,20.6,87,60,41,29.00,28.76,5,2,5,0.00
2014-10-4,52.5,42.7,35.6,31.3,24.8,19.5,69,50,38,28.94,28.79,4,1,4,0.00
2014-10-5,64.2,52.3,40.8,43.5,36.9,31.3,77,58,35,28.79,28.61,4,0,4,0.00
2014-10-6,64.2,52.9,46.8,48.8,39.5,29.9,83,62,35,28.70,28.61,5,1,5,0.00
2014-10-7,66.9,59.1,51.6,49.7,39.7,33.0,84,51,32,28.94,28.61,4,1,4,0.00
2014-10-8,66.9,54.8,43.2,49.0,38.9,35.1,82,57,34,29.09,28.94,3,0,3,0.00
2014-10-9,60.8,53.4,50.2,50.4,46.8,30.8,87,79,46,29.14,29.03,3,0,3,0.00
2014-10-10,55.4,48.4,40.6,36.3,33.3,29.8,78,56,43,29.20,29.12,3,0,3,0.00
2014-10-11,58.5,46.7,36.0,42.0,35.4,31.5,86,67,40,29.23,29.03,2,0,2,0.00
2014-10-12,55.8,49.7,41.2,50.2,43.3,34.0,87,79,69,29.03,28.76,4,0,4,0.00
2014-10-13,55.9,55.0,53.6,52.3,51.3,50.2,90,87,87,28.79,28.58,4,0,4,0.00
2014-10-14,60.6,54.7,51.4,50.9,45.0,34.7,91,72,45,28.88,28.58,6,2,6,0.00
2014-10-15,65.5,52.5,42.6,40.0,35.9,32.8,77,55,34,28.97,28.85,4,0,4,0.00
2014-10-16,70.3,54.3,39.7,48.8,41.2,35.7,88,64,39,28.88,28.67,6,0,6,0.00
2014-10-17,60.1,55.1,49.8,41.6,38.8,35.7,66,54,46,29.09,28.73,4,1,4,0.00
2014-10-18,55.9,47.4,40.6,41.0,38.2,34.5,84,71,54,29.20,29.09,3,0,3,0.00
2014-10-19,64.6,51.0,39.7,48.1,42.0,35.9,88,73,47,29.14,28.88,6,0,6,0.00
2014-10-20,68.5,55.3,45.3,47.7,41.6,35.2,84,63,33,29.03,28.88,4,0,4,0.00
2014-10-21,63.5,51.5,40.8,46.8,40.2,36.4,86,67,45,29.15,29.03,5,0,5,0.00
2014-10-22,64.8,53.9,43.9,43.8,39.6,35.4,77,59,45,29.20,29.06,6,1,6,0.00
2014-10-23,66.9,57.1,52.2,61.0,50.9,40.8,88,80,57,29.09,28.97,2,0,2,0.00
2014-10-24,68.2,62.5,55.6,63.2,58.1,51.8,87,85,83,28.97,28.88,3,0,3,0.00
2014-10-25,68.0,56.7,47.8,52.9,44.0,34.9,89,66,35,29.09,28.94,3,0,3,0.00
2014-10-26,70.3,57.6,45.9,49.0,38.0,29.9,75,50,34,29.06,28.58,6,1,6,0.00
2014-10-27,70.9,62.3,51.6,57.2,50.7,41.2,84,67,45,28.85,28.50,4,1,4,0.00
2014-10-28,55.9,49.5,42.1,41.9,30.9,27.1,68,49,38,29.09,28.85,5,1,5,0.00
2014-10-29,53.6,45.3,39.6,32.8,29.3,27.2,70,54,42,29.17,29.06,3,0,3,0.00
2014-10-30,60.6,49.1,38.7,38.7,34.6,30.2,77,59,41,29.20,28.97,6,1,6,0.00
2014-10-31,46.4,35.8,29.3,31.4,16.6,11.9,56,45,39,29.47,29.20,6,2,6,0.00
2014-11-1,46.9,35.2,24.3,22.0,17.9,14.2,72,51,36,29.44,29.20,6,1,6,0.00
2014-11-2,59.5,47.6,36.9,31.2,24.0,16.6,47,39,34,29.20,28.94,6,1,6,0.00
2014-11-3,64.4,55.7,46.9,52.1,40.3,28.1,74,56,47,28.94,28.82,6,1,6,0.00
2014-11-4,58.6,48.3,42.1,43.3,33.5,28.3,75,58,36,29.09,28.91,4,1,4,0.00
2014-11-5,57.9,47.1,39.7,41.3,33.4,28.7,71,59,44,29.09,28.91,4,0,4,0.00
2014-11-6,48.0,41.5,32.9,31.1,25.9,22.5,69,54,40,29.29,29.00,6,1,6,0.00
2014-11-7,57.2,44.7,31.6,38.7,28.0,23.9,75,54,36,29.23,28.76,7,1,7,0.00
2014-11-8,51.1,42.2,35.2,38.0,24.2,20.0,64,49,39,29.12,28.82,7,1,7,0.00
2014-11-9,55.4,47.0,37.0,33.1,29.1,23.6,58,50,41,28.91,28.64,3,0,3,0.00
2014-11-10,62.1,46.5,30.7,41.5,33.7,24.9,82,62,46,28.82,28.38,9,2,9,0.00
2014-11-11,30.7,25.9,22.5,24.8,14.8,6.6,82,63,49,29.32,28.82,10,4,10,0.00
2014-11-12,24.1,21.6,16.7,13.6,7.4,3.7,71,54,44,29.38,29.32,8,3,8,0.00
2014-11-13,26.8,23.2,17.6,13.2,9.6,5.7,68,56,46,29.44,29.35,10,3,10,0.00
2014-11-14,27.9,19.7,10.9,7.8,4.8,1.2,66,53,41,29.41,29.29,6,1,6,0.00
2014-11-15,29.1,24.2,20.1,20.2,11.6,2.5,81,59,44,29.29,29.09,4,0,4,0.00
2014-11-16,26.1,17.8,11.1,22.2,10.7,3.6,88,73,61,29.12,29.00,6,2,6,0.00
2014-11-17,17.4,13.6,10.2,6.8,1.8,-3.1,68,59,48,29.17,29.00,11,4,11,0.00
2014-11-18,25.2,17.3,9.5,10.9,2.9,-3.8,59,53,46,29.17,28.79,9,1,9,0.00
2014-11-19,29.3,24.8,21.6,17.7,10.9,0.0,64,55,49,29.12,28.73,0,0,0,0.00
2014-11-20,27.5,21.1,14.4,10.4,7.2,4.6,65,55,47,29.26,29.09,0,0,0,0.00
2014-11-21,37.0,27.0,13.6,28.2,13.7,3.7,72,57,43,29.26,29.00,0,0,0,0.00
2014-11-22,55.4,45.9,36.3,51.6,40.9,27.7,88,83,71,29.00,28.64,0,0,0,0.00
2014-11-23,54.7,49.1,35.8,51.5,45.3,28.5,90,87,72,28.64,28.35,0,0,0,0.00
2014-11-24,35.6,27.6,24.3,28.5,16.0,10.6,75,61,53,29.00,28.41,0,0,0,0.00
2014-11-25,34.5,26.2,17.8,12.7,10.2,8.2,67,51,39,29.12,28.94,0,0,0,0.00
2014-11-26,33.3,29.6,21.6,29.0,23.6,11.9,86,79,43,29.35,28.85,0,0,0,0.00
2014-11-27,21.6,11.3,2.5,15.6,0.7,-6.4,78,62,51,29.50,29.20,0,0,0,0.00
2014-11-28,40.6,27.1,12.7,29.4,17.2,-1.5,79,67,52,29.20,28.64,0,0,0,0.00
2014-11-29,52.0,41.5,32.2,43.3,36.1,27.3,89,81,70,28.64,28.50,0,0,0,0.00
2014-11-30,40.5,20.3,12.9,36.3,7.8,-3.1,88,59,47,29.47,28.58,0,0,0,0.00
2014-12-1,17.4,13.6,11.8,-1.2,-3.5,-5.7,48,46,43,29.68,29.44,0,0,0,0.00
2014-12-2,35.2,22.1,10.9,15.5,4.8,-6.7,63,47,42,29.44,28.97,0,0,0,0.00
2014-12-3,32.9,27.3,20.8,13.4,10.6,8.1,60,49,41,29.32,29.06,0,0,0,0.00
2014-12-4,34.0,29.7,22.8,25.5,15.0,8.2,74,54,45,29.29,29.12,0,0,0,0.00
2014-12-5,41.0,35.8,32.7,36.8,31.8,25.5,89,85,74,29.32,29.09,0,0,0,0.00
2014-12-6,39.9,35.1,31.3,32.1,27.9,19.8,90,76,51,29.56,29.32,0,0,0,0.00
2014-12-7,38.1,33.9,29.8,32.7,28.2,23.8,88,80,65,29.50,29.12,0,0,0,0.00
2014-12-8,43.3,37.9,29.5,37.3,29.0,17.1,89,71,51,29.26,29.06,0,0,0,0.00
2014-12-9,32.9,27.5,22.5,22.1,18.5,14.5,77,69,61,29.41,29.26,0,0,0,0.00
2014-12-10,33.6,31.0,26.2,26.2,23.7,20.0,78,74,69,29.35,29.23,0,0,0,0.00
2014-12-11,37.6,33.4,31.1,28.5,26.6,24.4,80,76,66,29.26,29.20,0,0,0,0.00
2014-12-12,48.6,39.3,33.8,38.7,33.3,27.7,87,79,68,29.26,29.14,0,0,0,0.00
2014-12-13,55.9,49.9,41.2,51.1,45.8,37.3,90,86,75,29.17,28.97,0,0,0,0.00
2014-12-14,57.2,54.1,51.1,52.6,50.0,47.3,88,86,82,28.97,28.79,0,0,0,0.00
2014-12-15,52.2,49.5,34.2,48.7,46.2,31.3,91,88,86,28.79,28.55,0,0,0,0.00
2014-12-16,34.2,25.5,17.1,31.1,16.6,6.5,89,69,60,29.29,28.79,0,0,0,0.00
2014-12-17,27.1,20.4,14.4,14.3,10.4,6.0,74,65,54,29.32,29.23,0,0,0,0.00
2014-12-18,31.8,26.5,21.0,21.0,17.1,13.4,75,67,56,29.26,29.20,0,0,0,0.00
2014-12-19,33.8,31.0,27.7,29.3,25.6,20.7,87,80,74,29.26,29.17,0,0,0,0.00
2014-12-20,37.2,33.9,32.2,34.8,30.8,29.0,91,88,87,29.17,29.06,0,0,0,0.00
2014-12-21,43.2,40.5,37.4,39.0,36.2,33.3,91,85,76,29.06,28.73,0,0,0,0.00
2014-12-22,42.3,41.0,39.9,39.3,38.3,37.0,92,90,87,28.73,28.47,0,0,0,0.00
2014-12-29,26.1,25.4,24.6,17.3,15.1,12.4,69,64,59,29.38,29.35,3,2,3,0.00